Time,TemperatureF,DewpointF,PressureIn,WindDirection,WindDirectionDegrees,WindSpeedMPH,WindSpeedGustMPH,Humidity,HourlyPrecipIn,Conditions,Clouds,dailyrainin,SolarRadiationWatts/m^2,SoftwareType,DateUTC
2013-09-09 00:01:00,53.9,51.0,29.96,ESE,109,0.0,2.0,91,0.00,,,0.00,0,weatherlink.com 1.10,2013-09-09 04:01:00,
2013-09-09 00:17:00,53.9,51.0,29.96,ESE,109,0.0,0.0,91,0.00,,,0.00,0,weatherlink.com 1.10,2013-09-09 04:17:00,
2013-09-09 00:32:00,54.0,52.0,29.96,ESE,109,0.0,0.0,91,0.00,,,0.00,0,weatherlink.com 1.10,2013-09-09 04:32:00,
2013-09-09 00:47:00,54.3,52.0,29.96,ESE,109,0.0,0.0,92,0.00,,,0.00,0,weatherlink.com 1.10,2013-09-09 04:47:00,
2013-09-09 01:02:00,54.4,52.0,29.96,SSW,199,0.0,2.0,92,0.00,,,0.00,0,weatherlink.com 1.10,2013-09-09 05:02:00,
2013-09-09 01:17:00,54.3,52.0,29.95,SSW,199,0.0,2.0,91,0.00,,,0.00,0,weatherlink.com 1.10,2013-09-09 05:17:00,
2013-09-09 01:32:00,54.5,52.0,29.95,SSW,199,0.0,1.0,91,0.00,,,0.00,0,weatherlink.com 1.10,2013-09-09 05:32:00,
2013-09-09 01:47:00,54.8,52.0,29.94,SSW,199,0.0,2.0,91,0.00,,,0.00,0,weatherlink.com 1.10,2013-09-09 05:47:00,
2013-09-09 02:02:00,55.0,53.0,29.93,SSW,199,0.0,2.0,91,0.00,,,0.00,0,weatherlink.com 1.10,2013-09-09 06:02:00,
2013-09-09 02:17:00,55.3,53.0,29.93,SSW,199,0.0,0.0,91,0.00,,,0.00,0,weatherlink.com 1.10,2013-09-09 06:17:00,
2013-09-09 02:32:00,55.4,53.0,29.93,SSW,198,0.0,0.0,90,0.00,,,0.00,0,weatherlink.com 1.10,2013-09-09 06:32:00,
2013-09-09 02:47:00,55.6,53.0,29.93,SSW,199,0.0,0.0,90,0.00,,,0.00,0,weatherlink.com 1.10,2013-09-09 06:47:00,
2013-09-09 03:02:00,55.8,53.0,29.92,SSW,199,0.0,0.0,90,0.00,,,0.00,0,weatherlink.com 1.10,2013-09-09 07:02:00,
2013-09-09 03:17:00,56.1,54.0,29.92,SSW,199,0.0,1.0,91,0.00,,,0.00,0,weatherlink.com 1.10,2013-09-09 07:17:00,
2013-09-09 03:32:00,56.5,54.0,29.92,SSW,200,0.0,3.0,90,0.00,,,0.00,0,weatherlink.com 1.10,2013-09-09 07:32:00,
2013-09-09 03:47:00,57.1,54.0,29.92,SSW,200,0.0,2.0,89,0.00,,,0.00,0,weatherlink.com 1.10,2013-09-09 07:47:00,
2013-09-09 04:02:00,57.4,54.0,29.91,SSW,199,0.0,2.0,89,0.00,,,0.00,0,weatherlink.com 1.10,2013-09-09 08:02:00,
2013-09-09 04:17:00,57.4,54.0,29.90,SSW,199,0.0,0.0,89,0.00,,,0.00,0,weatherlink.com 1.10,2013-09-09 08:17:00,
2013-09-09 04:32:00,57.3,54.0,29.90,SSW,199,0.0,0.0,89,0.00,,,0.00,0,weatherlink.com 1.10,2013-09-09 08:32:00,
2013-09-09 04:47:00,57.3,55.0,29.90,SSW,199,0.0,0.0,90,0.00,,,0.00,0,weatherlink.com 1.10,2013-09-09 08:47:00,
2013-09-09 05:02:00,57.6,55.0,29.90,SSW,199,0.0,0.0,90,0.00,,,0.00,0,weatherlink.com 1.10,2013-09-09 09:02:00,
2013-09-09 05:17:00,57.8,55.0,29.89,SSW,198,1.0,3.0,90,0.00,,,0.00,0,weatherlink.com 1.10,2013-09-09 09:17:00,
2013-09-09 05:32:00,58.5,55.0,29.89,SSE,148,0.0,4.0,89,0.00,,,0.00,0,weatherlink.com 1.10,2013-09-09 09:32:00,
2013-09-09 05:47:00,59.1,56.0,29.88,WSW,240,1.0,3.0,89,0.00,,,0.00,0,weatherlink.com 1.10,2013-09-09 09:47:00,
2013-09-09 06:02:00,59.4,56.0,29.88,SSE,163,1.0,5.0,88,0.00,,,0.00,0,weatherlink.com 1.10,2013-09-09 10:02:00,
2013-09-09 06:17:00,59.7,56.0,29.87,SSE,167,1.0,4.0,88,0.00,,,0.00,0,weatherlink.com 1.10,2013-09-09 10:17:00,
2013-09-09 06:32:00,59.8,56.0,29.87,SSE,164,0.0,2.0,88,0.00,,,0.00,0,weatherlink.com 1.10,2013-09-09 10:32:00,
2013-09-09 06:47:00,60.1,57.0,29.86,SSE,165,0.0,3.0,89,0.00,,,0.00,0,weatherlink.com 1.10,2013-09-09 10:47:00,
2013-09-09 07:02:00,61.0,58.0,29.86,SW,216,0.0,3.0,88,0.00,,,0.00,0,weatherlink.com 1.10,2013-09-09 11:02:00,
2013-09-09 07:17:00,61.0,58.0,29.86,SW,215,0.0,2.0,88,0.00,,,0.00,0,weatherlink.com 1.10,2013-09-09 11:17:00,
2013-09-09 07:32:00,60.9,57.0,29.85,South,190,1.0,3.0,88,0.00,,,0.00,0,weatherlink.com 1.10,2013-09-09 11:32:00,
2013-09-09 07:47:00,61.2,58.0,29.86,SW,221,1.0,6.0,88,0.00,,,0.00,9,weatherlink.com 1.10,2013-09-09 11:47:00,
2013-09-09 08:02:00,61.4,58.0,29.86,South,178,1.0,4.0,88,0.00,,,0.00,14,weatherlink.com 1.10,2013-09-09 12:02:00,
2013-09-09 08:17:00,61.7,58.0,29.86,South,186,3.0,3.0,88,0.00,,,0.00,11,weatherlink.com 1.10,2013-09-09 12:17:00,
2013-09-09 08:32:00,61.9,59.0,29.85,WNW,290,0.0,4.0,89,0.00,,,0.00,19,weatherlink.com 1.10,2013-09-09 12:32:00,
2013-09-09 08:47:00,62.2,59.0,29.86,SSW,197,1.0,5.0,89,0.00,,,0.00,47,weatherlink.com 1.10,2013-09-09 12:47:00,
2013-09-09 09:02:00,62.6,59.0,29.84,SSW,197,3.0,5.0,89,0.00,,,0.00,33,weatherlink.com 1.10,2013-09-09 13:02:00,
2013-09-09 09:18:00,62.9,59.0,29.84,SSE,154,4.0,9.0,88,0.00,,,0.00,33,weatherlink.com 1.10,2013-09-09 13:18:00,
2013-09-09 09:33:00,63.2,59.0,29.84,South,184,3.0,7.0,87,0.00,,,0.00,40,weatherlink.com 1.10,2013-09-09 13:33:00,
2013-09-09 09:48:00,63.6,59.0,29.84,SSE,163,6.0,10.0,86,0.00,,,0.00,74,weatherlink.com 1.10,2013-09-09 13:48:00,
2013-09-09 10:03:00,64.0,60.0,29.83,South,188,4.0,7.0,86,0.00,,,0.00,72,weatherlink.com 1.10,2013-09-09 14:03:00,
2013-09-09 10:18:00,64.3,60.0,29.84,South,188,2.0,12.0,86,0.00,,,0.00,107,weatherlink.com 1.10,2013-09-09 14:18:00,
2013-09-09 10:33:00,65.0,60.0,29.84,SSW,192,1.0,9.0,85,0.00,,,0.00,120,weatherlink.com 1.10,2013-09-09 14:33:00,
2013-09-09 10:48:00,65.7,61.0,29.84,South,173,1.0,9.0,84,0.00,,,0.00,158,weatherlink.com 1.10,2013-09-09 14:48:00,
2013-09-09 11:03:00,66.3,61.0,29.84,SSE,163,2.0,11.0,83,0.00,,,0.00,132,weatherlink.com 1.10,2013-09-09 15:03:00,
2013-09-09 11:18:00,66.4,61.0,29.85,South,185,2.0,6.0,83,0.00,,,0.00,84,weatherlink.com 1.10,2013-09-09 15:18:00,
2013-09-09 11:33:00,66.1,61.0,29.85,WNW,283,3.0,9.0,84,0.00,,,0.00,58,weatherlink.com 1.10,2013-09-09 15:33:00,
2013-09-09 11:48:00,65.7,61.0,29.85,South,191,1.0,8.0,85,0.00,,,0.00,47,weatherlink.com 1.10,2013-09-09 15:48:00,
2013-09-09 12:03:00,65.5,61.0,29.85,South,177,2.0,5.0,86,0.00,,,0.00,30,weatherlink.com 1.10,2013-09-09 16:03:00,
2013-09-09 12:18:00,65.3,61.0,29.84,WSW,238,4.0,8.0,87,0.00,,,0.00,58,weatherlink.com 1.10,2013-09-09 16:18:00,
2013-09-09 12:33:00,65.2,61.0,29.82,SSE,160,4.0,7.0,87,0.00,,,0.00,74,weatherlink.com 1.10,2013-09-09 16:33:00,
2013-09-09 12:48:00,65.4,62.0,29.81,SSE,158,2.0,5.0,87,0.00,,,0.00,116,weatherlink.com 1.10,2013-09-09 16:48:00,
2013-09-09 13:03:00,65.9,62.0,29.78,SW,236,5.0,7.0,86,0.00,,,0.00,114,weatherlink.com 1.10,2013-09-09 17:03:00,
2013-09-09 13:18:00,66.5,63.0,29.79,SSE,155,5.0,7.0,87,0.00,,,0.00,137,weatherlink.com 1.10,2013-09-09 17:18:00,
2013-09-09 13:33:00,66.7,63.0,29.78,SW,217,5.0,9.0,87,0.00,,,0.00,141,weatherlink.com 1.10,2013-09-09 17:33:00,
2013-09-09 13:48:00,66.8,63.0,29.76,SSE,152,1.0,9.0,87,0.00,,,0.00,202,weatherlink.com 1.10,2013-09-09 17:48:00,
2013-09-09 14:03:00,67.5,63.0,29.78,NNE,13,2.0,8.0,86,0.00,,,0.00,135,weatherlink.com 1.10,2013-09-09 18:03:00,
2013-09-09 14:18:00,67.4,63.0,29.74,South,173,1.0,7.0,86,0.00,,,0.00,186,weatherlink.com 1.10,2013-09-09 18:18:00,
2013-09-09 14:33:00,67.9,64.0,29.75,SSW,194,4.0,7.0,86,0.00,,,0.00,162,weatherlink.com 1.10,2013-09-09 18:33:00,
2013-09-09 14:48:00,67.7,64.0,29.73,SSE,167,1.0,7.0,87,0.00,,,0.00,158,weatherlink.com 1.10,2013-09-09 18:48:00,
2013-09-09 15:03:00,67.7,64.0,29.72,SSW,192,5.0,11.0,87,0.00,,,0.00,165,weatherlink.com 1.10,2013-09-09 19:03:00,
2013-09-09 15:18:00,67.7,64.0,29.71,South,171,2.0,13.0,87,0.00,,,0.00,104,weatherlink.com 1.10,2013-09-09 19:18:00,
2013-09-09 15:33:00,67.6,64.0,29.70,South,186,2.0,7.0,88,0.00,,,0.00,83,weatherlink.com 1.10,2013-09-09 19:33:00,
2013-09-09 15:48:00,67.9,64.0,29.71,SSW,194,1.0,10.0,88,0.00,,,0.00,120,weatherlink.com 1.10,2013-09-09 19:48:00,
2013-09-09 16:03:00,68.3,65.0,29.71,SSE,155,4.0,7.0,88,0.00,,,0.00,76,weatherlink.com 1.10,2013-09-09 20:03:00,
2013-09-09 16:18:00,68.6,65.0,29.70,SSW,192,4.0,7.0,88,0.00,,,0.00,100,weatherlink.com 1.10,2013-09-09 20:18:00,
2013-09-09 16:33:00,69.2,65.0,29.69,SSW,198,5.0,8.0,87,0.00,,,0.00,91,weatherlink.com 1.10,2013-09-09 20:33:00,
2013-09-09 16:48:00,69.5,66.0,29.69,South,171,3.0,7.0,87,0.00,,,0.00,114,weatherlink.com 1.10,2013-09-09 20:48:00,
2013-09-09 17:03:00,70.2,66.0,29.69,SW,222,4.0,8.0,87,0.00,,,0.00,148,weatherlink.com 1.10,2013-09-09 21:03:00,
2013-09-09 17:18:00,70.6,66.0,29.69,SSE,159,2.0,4.0,86,0.00,,,0.00,67,weatherlink.com 1.10,2013-09-09 21:18:00,
2013-09-09 17:34:00,70.5,66.0,29.70,South,184,2.0,7.0,86,0.00,,,0.00,53,weatherlink.com 1.10,2013-09-09 21:34:00,
2013-09-09 17:49:00,70.5,67.0,29.68,SSW,211,4.0,6.0,87,0.00,,,0.00,67,weatherlink.com 1.10,2013-09-09 21:49:00,
2013-09-09 18:04:00,70.5,67.0,29.68,South,182,0.0,7.0,87,0.00,,,0.00,44,weatherlink.com 1.10,2013-09-09 22:04:00,
2013-09-09 18:19:00,70.4,66.0,29.67,South,177,2.0,6.0,87,0.00,,,0.00,56,weatherlink.com 1.10,2013-09-09 22:19:00,
2013-09-09 18:34:00,70.7,67.0,29.66,SSW,203,3.0,7.0,88,0.00,,,0.00,118,weatherlink.com 1.10,2013-09-09 22:34:00,
2013-09-09 18:49:00,71.1,67.0,29.66,SSE,161,3.0,7.0,87,0.00,,,0.00,54,weatherlink.com 1.10,2013-09-09 22:49:00,
2013-09-09 19:04:00,71.1,67.0,29.66,SE,132,1.0,10.0,87,0.00,,,0.00,39,weatherlink.com 1.10,2013-09-09 23:04:00,
2013-09-09 19:19:00,71.0,67.0,29.66,SSW,201,3.0,5.0,87,0.00,,,0.00,21,weatherlink.com 1.10,2013-09-09 23:19:00,
2013-09-09 19:34:00,70.8,67.0,29.66,SSW,205,2.0,3.0,87,0.00,,,0.00,7,weatherlink.com 1.10,2013-09-09 23:34:00,
2013-09-09 19:49:00,70.6,67.0,29.66,South,190,0.0,3.0,88,0.00,,,0.00,5,weatherlink.com 1.10,2013-09-09 23:49:00,
2013-09-09 20:04:00,70.4,67.0,29.66,SSW,204,2.0,4.0,88,0.00,,,0.00,0,weatherlink.com 1.10,2013-09-10 00:04:00,
2013-09-09 20:19:00,70.2,67.0,29.66,South,171,0.0,6.0,88,0.00,,,0.00,0,weatherlink.com 1.10,2013-09-10 00:19:00,
2013-09-09 20:34:00,70.1,67.0,29.65,South,180,0.0,2.0,89,0.00,,,0.00,0,weatherlink.com 1.10,2013-09-10 00:34:00,
2013-09-09 20:49:00,69.9,67.0,29.64,South,180,0.0,0.0,89,0.00,,,0.00,0,weatherlink.com 1.10,2013-09-10 00:49:00,
2013-09-09 21:04:00,69.7,66.0,29.64,South,180,0.0,0.0,89,0.00,,,0.00,0,weatherlink.com 1.10,2013-09-10 01:04:00,
2013-09-09 21:19:00,69.7,66.0,29.65,South,180,0.0,1.0,89,0.00,,,0.00,0,weatherlink.com 1.10,2013-09-10 01:19:00,
2013-09-09 21:34:00,69.5,66.0,29.66,South,180,0.0,1.0,89,0.00,,,0.00,0,weatherlink.com 1.10,2013-09-10 01:34:00,
2013-09-09 21:49:00,69.2,66.0,29.64,South,177,2.0,4.0,90,0.00,,,0.00,0,weatherlink.com 1.10,2013-09-10 01:49:00,
2013-09-09 22:04:00,68.7,66.0,29.64,SSE,162,1.0,4.0,90,0.00,,,0.00,0,weatherlink.com 1.10,2013-09-10 02:04:00,
2013-09-09 22:19:00,68.5,66.0,29.64,South,186,0.0,4.0,91,0.00,,,0.00,0,weatherlink.com 1.10,2013-09-10 02:19:00,
2013-09-09 22:34:00,68.2,66.0,29.63,South,173,1.0,8.0,91,0.00,,,0.00,0,weatherlink.com 1.10,2013-09-10 02:34:00,
2013-09-09 22:49:00,68.2,66.0,29.64,South,173,0.0,1.0,91,0.00,,,0.00,0,weatherlink.com 1.10,2013-09-10 02:49:00,
2013-09-09 23:04:00,68.2,66.0,29.64,South,173,0.0,2.0,91,0.00,,,0.00,0,weatherlink.com 1.10,2013-09-10 03:04:00,
2013-09-09 23:19:00,68.1,65.0,29.65,South,173,0.0,0.0,91,0.00,,,0.00,0,weatherlink.com 1.10,2013-09-10 03:19:00,
2013-09-09 23:34:00,68.0,65.0,29.64,South,173,0.0,2.0,91,0.00,,,0.00,0,weatherlink.com 1.10,2013-09-10 03:34:00,
2013-09-09 23:49:00,68.0,66.0,29.64,South,173,0.0,0.0,92,0.00,,,0.00,0,weatherlink.com 1.10,2013-09-10 03:49:00,